Asheville, NC

1:07 PM EDT on April 27, 2017 (GMT -0400)
Asheville Regional

Weather History for KAVL - December, 2011

Change the Weather History Date:

Wednesday, December 21, 2011

  Actual Average Record
Temperature  
Mean Temperature 56 °F 38 °F  
Max Temperature 60 °F 48 °F 68 °F (1970)
Min Temperature 51 °F 28 °F 6 °F (1935)
Degree Days  
Heating Degree Days 9 27  
Month to date heating degree days 421 520  
Since 1 July heating degree days 1261 1387  
Cooling Degree Days 0 0  
Month to date cooling degree days 0 0  
Year to date cooling degree days 1201 863  
Growing Degree Days 6 (Base 50)    
Moisture  
Dew Point 53 °F    
Average Humidity 92    
Maximum Humidity 100    
Minimum Humidity 84    
Precipitation  
Precipitation 0.28 in 0.11 in 1.08 in (1900)
Month to date precipitation 2.47 2.54  
Year to date precipitation 43.40 44.52  
Snow  
Snow 0.00 in 0.00 in 3.70 in (1969)
Month to date snowfall T 0.4  
Since 1 July snowfall T 0.5  
Snow Depth 0.00 in    
Sea Level Pressure  
Sea Level Pressure 30.01 in    
Wind  
Wind Speed 9 mph (South)    
Max Wind Speed 23 mph    
Max Gust Speed 32 mph    
Visibility 7 miles    
Events Rain    
T = Trace of Precipitation, MM = Missing Value Source: NWS Daily Summary

Daily Weather History Graph

Daily Weather History Graph

Search for Another Location

Airport or City:

Trip Planner

Search our weather history database for the weather conditions in past years. The results will help you decide how hot, cold, wet, or windy it might be!

Date:

Astronomy

Dec. 21, 2011 Rise Set
Actual Time 7:35 AM EST 5:21 PM EST
Civil Twilight 7:06 AM EST 5:49 PM EST
Nautical Twilight 6:35 AM EST 6:21 PM EST
Astronomical Twilight 6:03 AM EST 6:52 PM EST
Moon 4:09 AM EST (12/21) 2:37 PM EST (12/21)
Length of Visible Light 10h 42m
Length of Day
9h 45m
Waning Crescent, 12% of the Moon is Illuminated
Dec 21
Waning Crescent
Dec 24
New
Jan 1
First Quarter
Jan 9
Full
Jan 16
Last Quarter

Hourly Weather History & Observations

Time (EST) Temp. Dew Point Humidity Pressure Visibility Wind Dir Wind Speed Gust Speed Precip Events Conditions
12:31 AM 51.8 °F 50.0 °F 94% 30.13 in 10.0 mi South 5.8 mph - 0.00 in Rain Light Rain
12:54 AM 52.0 °F 50.0 °F 93% 30.11 in 10.0 mi SSE 4.6 mph - 0.00 in   Overcast
1:12 AM 51.8 °F 50.0 °F 94% 30.13 in 10.0 mi SSE 5.8 mph - 0.01 in Rain Light Rain
1:51 AM 51.8 °F 50.0 °F 94% 30.12 in 10.0 mi SSE 6.9 mph - 0.01 in Rain Light Rain
1:52 AM 52.0 °F 50.0 °F 93% 30.09 in 10.0 mi SSE 6.9 mph - 0.01 in Rain Light Rain
2:25 AM 51.8 °F 50.0 °F 94% 30.12 in 10.0 mi South 9.2 mph - 0.01 in Rain Light Rain
2:54 AM 52.0 °F 50.0 °F 93% 30.08 in 10.0 mi SSE 6.9 mph - 0.01 in   Overcast
3:54 AM 51.1 °F 50.0 °F 96% 30.06 in 10.0 mi South 4.6 mph - N/A   Overcast
4:54 AM 51.1 °F 50.0 °F 96% 30.04 in 10.0 mi SSE 3.5 mph - 0.00 in   Overcast
5:40 AM 51.8 °F 51.8 °F 100% 30.06 in 5.0 mi SSE 4.6 mph - 0.01 in Rain Light Rain
5:54 AM 53.1 °F 51.1 °F 93% 30.03 in 8.0 mi SE 4.6 mph - 0.02 in Rain Light Rain
6:54 AM 52.0 °F 51.1 °F 97% 30.01 in 5.0 mi SSE 8.1 mph - 0.01 in Rain Light Rain
7:37 AM 53.6 °F 51.8 °F 94% 30.02 in 10.0 mi SSE 8.1 mph - 0.01 in   Overcast
7:41 AM 53.6 °F 51.8 °F 94% 30.02 in 2.5 mi South 9.2 mph - 0.01 in   Overcast
7:54 AM 53.1 °F 52.0 °F 96% 30.00 in 2.5 mi South 8.1 mph - 0.01 in Rain Light Rain
8:07 AM 53.6 °F 51.8 °F 94% 30.03 in 1.5 mi SSW 9.2 mph - 0.00 in Rain Light Rain
8:10 AM 53.6 °F 51.8 °F 94% 30.04 in 0.8 mi South 9.2 mph - 0.00 in Rain Light Rain
8:17 AM 53.6 °F 51.8 °F 94% 30.05 in 0.8 mi SW 6.9 mph - 0.01 in Rain Light Rain
8:39 AM 53.6 °F 51.8 °F 94% 30.04 in 0.8 mi SSE 6.9 mph - 0.01 in   Overcast
8:52 AM 53.6 °F 51.8 °F 94% 30.04 in 1.5 mi SSE 5.8 mph - 0.01 in   Overcast
8:53 AM 53.1 °F 52.0 °F 96% 30.02 in 1.5 mi SSE 5.8 mph - 0.01 in   Overcast
9:00 AM 53.6 °F 51.8 °F 94% 30.04 in 2.0 mi SSE 5.8 mph - N/A   Overcast
9:54 AM 54.0 °F 52.0 °F 93% 30.02 in 2.0 mi South 3.5 mph - 0.00 in Rain Light Rain
10:54 AM 55.0 °F 54.0 °F 96% 30.00 in 2.0 mi SSW 4.6 mph - 0.01 in   Overcast
11:54 AM 57.0 °F 55.0 °F 93% 29.97 in 2.5 mi South 9.2 mph - N/A   Overcast
12:54 PM 59.0 °F 55.9 °F 90% 29.94 in 2.5 mi South 13.8 mph - 0.00 in   Overcast
1:01 PM 57.2 °F 55.4 °F 94% 29.97 in 5.0 mi South 15.0 mph - N/A   Overcast
1:54 PM 60.1 °F 55.9 °F 86% 29.90 in 5.0 mi South 17.3 mph 27.6 mph N/A   Overcast
2:54 PM 59.0 °F 55.9 °F 90% 29.90 in 2.0 mi South 15.0 mph 24.2 mph 0.01 in Rain Light Rain
3:54 PM 57.9 °F 55.9 °F 93% 29.92 in 2.0 mi SSW 8.1 mph - 0.14 in Rain Rain
4:01 PM 57.2 °F 57.2 °F 100% 29.96 in 9.0 mi South 9.2 mph 21.9 mph 0.01 in Rain Light Rain
4:54 PM 57.9 °F 55.9 °F 93% 29.93 in 10.0 mi South 11.5 mph - 0.05 in Rain Light Rain
5:29 PM 57.2 °F 55.4 °F 94% 29.96 in 10.0 mi Calm Calm - N/A   Scattered Clouds
5:38 PM 57.2 °F 55.4 °F 94% 29.97 in 10.0 mi SSE 4.6 mph - N/A   Mostly Cloudy
5:54 PM 57.9 °F 55.9 °F 93% 29.94 in 10.0 mi South 8.1 mph - N/A   Overcast
6:54 PM 57.9 °F 55.9 °F 93% 29.96 in 10.0 mi South 6.9 mph - N/A   Overcast
7:22 PM 57.2 °F 55.4 °F 94% 30.00 in 10.0 mi South 10.4 mph - N/A   Scattered Clouds
7:44 PM 59.0 °F 57.2 °F 94% 30.01 in 10.0 mi SSW 10.4 mph - N/A   Mostly Cloudy
7:54 PM 59.0 °F 57.0 °F 93% 29.97 in 10.0 mi South 10.4 mph 19.6 mph N/A   Overcast
8:54 PM 59.0 °F 57.0 °F 93% 29.98 in 10.0 mi South 16.1 mph 19.6 mph N/A   Mostly Cloudy
9:35 PM 59.0 °F 55.4 °F 88% 30.02 in 10.0 mi SSW 13.8 mph - N/A   Scattered Clouds
9:54 PM 57.9 °F 55.9 °F 93% 29.98 in 10.0 mi South 10.4 mph - N/A   Scattered Clouds
10:54 PM 57.0 °F 55.0 °F 93% 30.00 in 10.0 mi South 8.1 mph - N/A   Clear
11:54 PM 57.0 °F 55.0 °F 93% 29.99 in 10.0 mi South 9.2 mph - N/A   Clear